Year,Month,Day,Hour,Minute,Value (Times are PST for temperature in C)
2022,10,03,00,00,11.60
2022,10,03,00,01,11.60
2022,10,03,00,02,11.60
2022,10,03,00,03,11.60
2022,10,03,00,04,11.70
2022,10,03,00,05,11.70
2022,10,03,00,06,11.70
2022,10,03,00,07,11.80
2022,10,03,00,08,11.90
2022,10,03,00,09,12.00
2022,10,03,00,10,12.10
2022,10,03,00,11,12.10
2022,10,03,00,12,12.10
2022,10,03,00,13,12.10
2022,10,03,00,14,12.00
2022,10,03,00,15,12.00
2022,10,03,00,16,11.90
2022,10,03,00,17,11.90
2022,10,03,00,18,11.80
2022,10,03,00,19,11.80
2022,10,03,00,20,11.80
2022,10,03,00,21,11.80
2022,10,03,00,22,11.80
2022,10,03,00,23,11.90
2022,10,03,00,24,12.00
2022,10,03,00,25,12.10
2022,10,03,00,26,12.10
2022,10,03,00,27,12.20
2022,10,03,00,28,12.30
2022,10,03,00,29,12.30
2022,10,03,00,30,12.40
2022,10,03,00,31,12.40
2022,10,03,00,32,12.50
2022,10,03,00,33,12.60
2022,10,03,00,34,12.60
2022,10,03,00,35,12.60
2022,10,03,00,36,12.50
2022,10,03,00,37,12.50
2022,10,03,00,38,12.40
2022,10,03,00,39,12.40
2022,10,03,00,40,12.40
2022,10,03,00,41,12.40
2022,10,03,00,42,12.40
2022,10,03,00,43,12.40
2022,10,03,00,44,12.50
2022,10,03,00,45,12.50
2022,10,03,00,46,12.50
2022,10,03,00,47,12.40
2022,10,03,00,48,12.40
2022,10,03,00,49,12.40
2022,10,03,00,50,12.40
2022,10,03,00,51,12.40
2022,10,03,00,52,12.40
2022,10,03,00,53,12.40
2022,10,03,00,54,12.50
2022,10,03,00,55,12.50
2022,10,03,00,56,12.60
2022,10,03,00,57,12.60
2022,10,03,00,58,12.60
2022,10,03,00,59,12.60
2022,10,03,01,00,12.50
2022,10,03,01,01,12.40
2022,10,03,01,02,12.30
2022,10,03,01,03,12.20
2022,10,03,01,04,12.20
2022,10,03,01,05,12.20
2022,10,03,01,06,12.20
2022,10,03,01,07,12.20
2022,10,03,01,08,12.20
2022,10,03,01,09,12.20
2022,10,03,01,10,12.10
2022,10,03,01,11,12.10
2022,10,03,01,12,12.00
2022,10,03,01,13,12.00
2022,10,03,01,14,11.90
2022,10,03,01,15,11.90
2022,10,03,01,16,11.80
2022,10,03,01,17,11.80
2022,10,03,01,18,11.80
2022,10,03,01,19,11.90
2022,10,03,01,20,12.00
2022,10,03,01,21,12.10
2022,10,03,01,22,12.20
2022,10,03,01,23,12.30
2022,10,03,01,24,12.30
2022,10,03,01,25,12.40
2022,10,03,01,26,12.40
2022,10,03,01,27,12.40
2022,10,03,01,28,12.30
2022,10,03,01,29,12.30
2022,10,03,01,30,12.30
2022,10,03,01,31,12.30
2022,10,03,01,32,12.40
2022,10,03,01,33,12.40
2022,10,03,01,34,12.40
2022,10,03,01,35,12.40
2022,10,03,01,36,12.40
2022,10,03,01,37,12.30
2022,10,03,01,38,12.30
2022,10,03,01,39,12.30
2022,10,03,01,40,12.40
2022,10,03,01,41,12.40
2022,10,03,01,42,12.40
2022,10,03,01,43,12.40
2022,10,03,01,44,12.40
2022,10,03,01,45,12.40
2022,10,03,01,46,12.50
2022,10,03,01,47,12.50
2022,10,03,01,48,12.60
2022,10,03,01,49,12.50
2022,10,03,01,50,12.50
2022,10,03,01,51,12.40
2022,10,03,01,52,12.40
2022,10,03,01,53,12.30
2022,10,03,01,54,12.20
2022,10,03,01,55,12.20
2022,10,03,01,56,12.10
2022,10,03,01,57,12.10
2022,10,03,01,58,12.10
2022,10,03,01,59,12.00
2022,10,03,02,00,12.00
2022,10,03,02,01,12.00
2022,10,03,02,02,11.90
2022,10,03,02,03,11.90
2022,10,03,02,04,11.90
2022,10,03,02,05,11.80
2022,10,03,02,06,11.80
2022,10,03,02,07,11.80
2022,10,03,02,08,11.80
2022,10,03,02,09,11.80
2022,10,03,02,10,11.70
2022,10,03,02,11,11.70
2022,10,03,02,12,11.70
2022,10,03,02,13,11.60
2022,10,03,02,14,11.60
2022,10,03,02,15,11.60
2022,10,03,02,16,11.60
2022,10,03,02,17,11.50
2022,10,03,02,18,11.50
2022,10,03,02,19,11.40
2022,10,03,02,20,11.40
2022,10,03,02,21,11.40
2022,10,03,02,22,11.40
2022,10,03,02,23,11.40
2022,10,03,02,24,11.40
2022,10,03,02,25,11.40
2022,10,03,02,26,11.40
2022,10,03,02,27,11.40
2022,10,03,02,28,11.40
2022,10,03,02,29,11.40
2022,10,03,02,30,11.40
2022,10,03,02,31,11.40
2022,10,03,02,32,11.40
2022,10,03,02,33,11.40
2022,10,03,02,34,11.40
2022,10,03,02,35,11.30
2022,10,03,02,36,11.30
2022,10,03,02,37,11.30
2022,10,03,02,38,11.30
2022,10,03,02,39,11.30
2022,10,03,02,40,11.30
2022,10,03,02,41,11.30
2022,10,03,02,42,11.20
2022,10,03,02,43,11.20
2022,10,03,02,44,11.20
2022,10,03,02,45,11.10
2022,10,03,02,46,11.10
2022,10,03,02,47,11.10
2022,10,03,02,48,11.10
2022,10,03,02,49,11.10
2022,10,03,02,50,11.20
2022,10,03,02,51,11.20
2022,10,03,02,52,11.20
2022,10,03,02,53,11.20
2022,10,03,02,54,11.20
2022,10,03,02,55,11.20
2022,10,03,02,56,11.20
2022,10,03,02,57,11.20
2022,10,03,02,58,11.20
2022,10,03,02,59,11.20
2022,10,03,03,00,11.20
2022,10,03,03,01,11.10
2022,10,03,03,02,11.10
2022,10,03,03,03,11.10
2022,10,03,03,04,11.10
2022,10,03,03,05,11.10
2022,10,03,03,06,11.10
2022,10,03,03,07,11.10
2022,10,03,03,08,11.10
2022,10,03,03,09,11.10
2022,10,03,03,10,11.10
2022,10,03,03,11,11.10
2022,10,03,03,12,11.10
2022,10,03,03,13,11.00
2022,10,03,03,14,11.00
2022,10,03,03,15,10.90
2022,10,03,03,16,10.90
2022,10,03,03,17,10.90
2022,10,03,03,18,10.90
2022,10,03,03,19,10.90
2022,10,03,03,20,10.90
2022,10,03,03,21,11.00
2022,10,03,03,22,11.00
2022,10,03,03,23,11.00
2022,10,03,03,24,11.00
2022,10,03,03,25,11.10
2022,10,03,03,26,11.10
2022,10,03,03,27,11.10
2022,10,03,03,28,11.10
2022,10,03,03,29,11.10
2022,10,03,03,30,11.10
2022,10,03,03,31,11.10
2022,10,03,03,32,11.10
2022,10,03,03,33,11.00
2022,10,03,03,34,11.00
2022,10,03,03,35,10.90
2022,10,03,03,36,10.90
2022,10,03,03,37,10.90
2022,10,03,03,38,10.90
2022,10,03,03,39,10.90
2022,10,03,03,40,10.90
2022,10,03,03,41,10.80
2022,10,03,03,42,10.80
2022,10,03,03,43,10.80
2022,10,03,03,44,10.80
2022,10,03,03,45,10.80
2022,10,03,03,46,10.80
2022,10,03,03,47,10.80
2022,10,03,03,48,10.80
2022,10,03,03,49,10.80
2022,10,03,03,50,10.80
2022,10,03,03,51,10.80
2022,10,03,03,52,10.80
2022,10,03,03,53,10.80
2022,10,03,03,54,10.80
2022,10,03,03,55,10.80
2022,10,03,03,56,10.80
2022,10,03,03,57,10.80
2022,10,03,03,58,10.80
2022,10,03,03,59,10.80
2022,10,03,04,00,10.80
2022,10,03,04,01,10.80
2022,10,03,04,02,10.90
2022,10,03,04,03,10.90
2022,10,03,04,04,10.90
2022,10,03,04,05,10.80
2022,10,03,04,06,10.80
2022,10,03,04,07,10.80
2022,10,03,04,08,10.90
2022,10,03,04,09,11.00
2022,10,03,04,10,11.00
2022,10,03,04,11,11.00
2022,10,03,04,12,10.90
2022,10,03,04,13,10.90
2022,10,03,04,14,10.90
2022,10,03,04,15,11.00
2022,10,03,04,16,11.10
2022,10,03,04,17,11.10
2022,10,03,04,18,11.10
2022,10,03,04,19,11.00
2022,10,03,04,20,11.10
2022,10,03,04,21,11.10
2022,10,03,04,22,11.20
2022,10,03,04,23,11.30
2022,10,03,04,24,11.30
2022,10,03,04,25,11.40
2022,10,03,04,26,11.40
2022,10,03,04,27,11.50
2022,10,03,04,28,11.40
2022,10,03,04,29,11.40
2022,10,03,04,30,11.50
2022,10,03,04,31,11.50
2022,10,03,04,32,11.50
2022,10,03,04,33,11.50
2022,10,03,04,34,11.50
2022,10,03,04,35,11.50
2022,10,03,04,36,11.50
2022,10,03,04,37,11.50
2022,10,03,04,38,11.50
2022,10,03,04,39,11.50
2022,10,03,04,40,11.60
2022,10,03,04,41,11.60
2022,10,03,04,42,11.60
2022,10,03,04,43,11.70
2022,10,03,04,44,11.70
2022,10,03,04,45,11.70
2022,10,03,04,46,11.60
2022,10,03,04,47,11.50
2022,10,03,04,48,11.40
2022,10,03,04,49,11.40
2022,10,03,04,50,11.30
2022,10,03,04,51,11.30
2022,10,03,04,52,11.20
2022,10,03,04,53,11.20
2022,10,03,04,54,11.20
2022,10,03,04,55,11.20
2022,10,03,04,56,11.20
2022,10,03,04,57,11.10
2022,10,03,04,58,11.10
2022,10,03,04,59,11.00
2022,10,03,05,00,11.00
2022,10,03,05,01,10.90
2022,10,03,05,02,10.90
2022,10,03,05,03,10.90
2022,10,03,05,04,10.90
2022,10,03,05,05,10.90
2022,10,03,05,06,10.80
2022,10,03,05,07,10.80
2022,10,03,05,08,10.80
2022,10,03,05,09,10.80
2022,10,03,05,10,10.80
2022,10,03,05,11,10.80
2022,10,03,05,12,10.80
2022,10,03,05,13,10.80
2022,10,03,05,14,10.80
2022,10,03,05,15,10.80
2022,10,03,05,16,10.80
2022,10,03,05,17,10.70
2022,10,03,05,18,10.80
2022,10,03,05,19,10.80
2022,10,03,05,20,10.80
2022,10,03,05,21,10.80
2022,10,03,05,22,10.80
2022,10,03,05,23,10.70
2022,10,03,05,24,10.70
2022,10,03,05,25,10.70
2022,10,03,05,26,10.70
2022,10,03,05,27,10.70
2022,10,03,05,28,10.70
2022,10,03,05,29,10.70
2022,10,03,05,30,10.80
2022,10,03,05,31,10.80
2022,10,03,05,32,10.80
2022,10,03,05,33,10.80
2022,10,03,05,34,10.80
2022,10,03,05,35,10.90
2022,10,03,05,36,10.90
2022,10,03,05,37,10.90
2022,10,03,05,38,10.90
2022,10,03,05,39,10.80
2022,10,03,05,40,10.80
2022,10,03,05,41,10.80
2022,10,03,05,42,10.80
2022,10,03,05,43,10.80
2022,10,03,05,44,10.80
2022,10,03,05,45,10.80
2022,10,03,05,46,10.80
2022,10,03,05,47,10.80
2022,10,03,05,48,10.80
2022,10,03,05,49,10.80
2022,10,03,05,50,10.80
2022,10,03,05,51,10.80
2022,10,03,05,52,10.90
2022,10,03,05,53,10.90
2022,10,03,05,54,10.90
2022,10,03,05,55,10.90
2022,10,03,05,56,10.90
2022,10,03,05,57,10.90
2022,10,03,05,58,10.80
2022,10,03,05,59,10.80
2022,10,03,06,00,10.70
2022,10,03,06,01,10.70
2022,10,03,06,02,10.60
2022,10,03,06,03,10.60
2022,10,03,06,04,10.60
2022,10,03,06,05,10.70
2022,10,03,06,06,10.70
2022,10,03,06,07,10.70
2022,10,03,06,08,10.70
2022,10,03,06,09,10.60
2022,10,03,06,10,10.60
2022,10,03,06,11,10.70
2022,10,03,06,12,10.80
2022,10,03,06,13,10.90
2022,10,03,06,14,11.00
2022,10,03,06,15,11.00
2022,10,03,06,16,11.00
2022,10,03,06,17,11.00
2022,10,03,06,18,11.10
2022,10,03,06,19,11.10
2022,10,03,06,20,11.00
2022,10,03,06,21,11.00
2022,10,03,06,22,10.90
2022,10,03,06,23,10.80
2022,10,03,06,24,10.90
2022,10,03,06,25,10.90
2022,10,03,06,26,11.00
2022,10,03,06,27,11.00
2022,10,03,06,28,11.00
2022,10,03,06,29,11.00
2022,10,03,06,30,11.00
2022,10,03,06,31,11.00
2022,10,03,06,32,11.00
2022,10,03,06,33,10.90
2022,10,03,06,34,10.90
2022,10,03,06,35,11.00
2022,10,03,06,36,11.00
2022,10,03,06,37,11.00
2022,10,03,06,38,10.90
2022,10,03,06,39,10.90
2022,10,03,06,40,10.90
2022,10,03,06,41,10.90
2022,10,03,06,42,11.00
2022,10,03,06,43,11.00
2022,10,03,06,44,11.10
2022,10,03,06,45,11.00
2022,10,03,06,46,11.00
2022,10,03,06,47,10.90
2022,10,03,06,48,10.90
2022,10,03,06,49,10.80
2022,10,03,06,50,10.80
2022,10,03,06,51,10.90
2022,10,03,06,52,11.00
2022,10,03,06,53,11.00
2022,10,03,06,54,11.10
2022,10,03,06,55,11.10
2022,10,03,06,56,11.10
2022,10,03,06,57,11.00
2022,10,03,06,58,11.00
2022,10,03,06,59,11.00
2022,10,03,07,00,11.00
2022,10,03,07,01,11.10
2022,10,03,07,02,11.10
2022,10,03,07,03,11.10
2022,10,03,07,04,11.10
2022,10,03,07,05,11.10
2022,10,03,07,06,11.00
2022,10,03,07,07,11.00
2022,10,03,07,08,10.90
2022,10,03,07,09,10.90
2022,10,03,07,10,10.90
2022,10,03,07,11,10.80
2022,10,03,07,12,10.80
2022,10,03,07,13,10.70
2022,10,03,07,14,10.70
2022,10,03,07,15,10.80
2022,10,03,07,16,10.80
2022,10,03,07,17,10.80
2022,10,03,07,18,10.70
2022,10,03,07,19,10.70
2022,10,03,07,20,10.70
2022,10,03,07,21,10.70
2022,10,03,07,22,10.60
2022,10,03,07,23,10.60
2022,10,03,07,24,10.60
2022,10,03,07,25,10.50
2022,10,03,07,26,10.50
2022,10,03,07,27,10.60
2022,10,03,07,28,10.60
2022,10,03,07,29,10.60
2022,10,03,07,30,10.50
2022,10,03,07,31,10.50
2022,10,03,07,32,10.60
2022,10,03,07,33,10.60
2022,10,03,07,34,10.70
2022,10,03,07,35,10.70
2022,10,03,07,36,10.70
2022,10,03,07,37,10.70
2022,10,03,07,38,10.60
2022,10,03,07,39,10.60
2022,10,03,07,40,10.60
2022,10,03,07,41,10.60
2022,10,03,07,42,10.60
2022,10,03,07,43,10.60
2022,10,03,07,44,10.60
2022,10,03,07,45,10.70
2022,10,03,07,46,10.80
2022,10,03,07,47,10.80
2022,10,03,07,48,10.80
2022,10,03,07,49,10.80
2022,10,03,07,50,10.70
2022,10,03,07,51,10.70
2022,10,03,07,52,10.70
2022,10,03,07,53,10.70
2022,10,03,07,54,10.70
2022,10,03,07,55,10.70
2022,10,03,07,56,10.70
2022,10,03,07,57,10.70
2022,10,03,07,58,10.70
2022,10,03,07,59,10.70
2022,10,03,08,00,10.70
2022,10,03,08,01,10.70
2022,10,03,08,02,10.80
2022,10,03,08,03,10.80
2022,10,03,08,04,10.90
2022,10,03,08,05,10.90
2022,10,03,08,06,10.90
2022,10,03,08,07,10.90
2022,10,03,08,08,11.00
2022,10,03,08,09,11.00
2022,10,03,08,10,11.00
2022,10,03,08,11,11.10
2022,10,03,08,12,11.10
2022,10,03,08,13,11.20
2022,10,03,08,14,11.20
2022,10,03,08,15,11.30
2022,10,03,08,16,11.40
2022,10,03,08,17,11.50
2022,10,03,08,18,11.60
2022,10,03,08,19,11.60
2022,10,03,08,20,11.60
2022,10,03,08,21,11.60
2022,10,03,08,22,11.70
2022,10,03,08,23,11.70
2022,10,03,08,24,11.80
2022,10,03,08,25,11.80
2022,10,03,08,26,11.90
2022,10,03,08,27,12.00
2022,10,03,08,28,12.00
2022,10,03,08,29,12.10
2022,10,03,08,30,12.20
2022,10,03,08,31,12.20
2022,10,03,08,32,12.30
2022,10,03,08,33,12.30
2022,10,03,08,34,12.40
2022,10,03,08,35,12.40
2022,10,03,08,36,12.50
2022,10,03,08,37,12.60
2022,10,03,08,38,12.60
2022,10,03,08,39,12.70
2022,10,03,08,40,12.80
2022,10,03,08,41,12.80
2022,10,03,08,42,12.90
2022,10,03,08,43,12.90
2022,10,03,08,44,13.00
2022,10,03,08,45,13.10
2022,10,03,08,46,13.20
2022,10,03,08,47,13.20
2022,10,03,08,48,13.30
2022,10,03,08,49,13.30
2022,10,03,08,50,13.40
2022,10,03,08,51,13.50
2022,10,03,08,52,13.60
2022,10,03,08,53,13.70
2022,10,03,08,54,13.70
2022,10,03,08,55,13.80
2022,10,03,08,56,13.90
2022,10,03,08,57,14.00
2022,10,03,08,58,14.10
2022,10,03,08,59,14.20
2022,10,03,09,00,14.20
2022,10,03,09,01,14.40
2022,10,03,09,02,14.50
2022,10,03,09,03,14.60
2022,10,03,09,04,14.70
2022,10,03,09,05,14.80
2022,10,03,09,06,14.90
2022,10,03,09,07,15.10
2022,10,03,09,08,15.20
2022,10,03,09,09,15.30
2022,10,03,09,10,15.40
2022,10,03,09,11,15.50
2022,10,03,09,12,15.60
2022,10,03,09,13,15.60
2022,10,03,09,14,15.70
2022,10,03,09,15,15.70
2022,10,03,09,16,15.70
2022,10,03,09,17,15.70
2022,10,03,09,18,15.80
2022,10,03,09,19,15.80
2022,10,03,09,20,15.80
2022,10,03,09,21,15.90
2022,10,03,09,22,16.10
2022,10,03,09,23,16.20
2022,10,03,09,24,16.40
2022,10,03,09,25,16.50
2022,10,03,09,26,16.60
2022,10,03,09,27,16.80
2022,10,03,09,28,16.90
2022,10,03,09,29,17.10
2022,10,03,09,30,17.20
2022,10,03,09,31,17.30
2022,10,03,09,32,17.40
2022,10,03,09,33,17.50
2022,10,03,09,34,17.60
2022,10,03,09,35,17.70
2022,10,03,09,36,17.80
2022,10,03,09,37,17.80
2022,10,03,09,38,17.80
2022,10,03,09,39,18.00
2022,10,03,09,40,18.10
2022,10,03,09,41,18.10
2022,10,03,09,42,18.20
2022,10,03,09,43,18.20
2022,10,03,09,44,18.30
2022,10,03,09,45,18.30
2022,10,03,09,46,18.30
2022,10,03,09,47,18.20
2022,10,03,09,48,18.20
2022,10,03,09,49,18.20
2022,10,03,09,50,18.10
2022,10,03,09,51,18.10
2022,10,03,09,52,18.10
2022,10,03,09,53,18.10
2022,10,03,09,54,18.00
2022,10,03,09,55,17.90
2022,10,03,09,56,17.90
2022,10,03,09,57,17.80
2022,10,03,09,58,17.80
2022,10,03,09,59,17.80
2022,10,03,10,00,17.70
2022,10,03,10,01,17.70
2022,10,03,10,02,17.70
2022,10,03,10,03,17.70
2022,10,03,10,04,17.70
2022,10,03,10,05,17.70
2022,10,03,10,06,17.80
2022,10,03,10,07,17.80
2022,10,03,10,08,17.80
2022,10,03,10,09,17.80
2022,10,03,10,10,17.80
2022,10,03,10,11,17.80
2022,10,03,10,12,17.80
2022,10,03,10,13,17.80
2022,10,03,10,14,17.80
2022,10,03,10,15,17.80
2022,10,03,10,16,17.80
2022,10,03,10,17,17.80
2022,10,03,10,18,17.90
2022,10,03,10,19,17.90
2022,10,03,10,20,18.00
2022,10,03,10,21,18.00
2022,10,03,10,22,18.00
2022,10,03,10,23,18.00
2022,10,03,10,24,18.00
2022,10,03,10,25,18.10
2022,10,03,10,26,18.10
2022,10,03,10,27,18.20
2022,10,03,10,28,18.20
2022,10,03,10,29,18.20
2022,10,03,10,30,18.20
2022,10,03,10,31,18.30
2022,10,03,10,32,18.40
2022,10,03,10,33,18.40
2022,10,03,10,34,18.50
2022,10,03,10,35,18.60
2022,10,03,10,36,18.60
2022,10,03,10,37,18.70
2022,10,03,10,38,18.70
2022,10,03,10,39,18.70
2022,10,03,10,40,18.70
2022,10,03,10,41,18.70
2022,10,03,10,42,18.70
2022,10,03,10,43,18.80
2022,10,03,10,44,18.80
2022,10,03,10,45,18.80
2022,10,03,10,46,18.90
2022,10,03,10,47,18.80
2022,10,03,10,48,18.80
2022,10,03,10,49,18.80
2022,10,03,10,50,18.90
2022,10,03,10,51,18.90
2022,10,03,10,52,19.00
2022,10,03,10,53,19.00
2022,10,03,10,54,19.10
2022,10,03,10,55,19.20
2022,10,03,10,56,19.30
2022,10,03,10,57,19.30
2022,10,03,10,58,19.30
2022,10,03,10,59,19.30
2022,10,03,11,00,19.30
2022,10,03,11,01,19.40
2022,10,03,11,02,19.40
2022,10,03,11,03,19.50
2022,10,03,11,04,19.50
2022,10,03,11,05,19.60
2022,10,03,11,06,19.60
2022,10,03,11,07,19.60
2022,10,03,11,08,19.70
2022,10,03,11,09,19.60
2022,10,03,11,10,19.60
2022,10,03,11,11,19.70
2022,10,03,11,12,19.70
2022,10,03,11,13,19.70
2022,10,03,11,14,19.70
2022,10,03,11,15,19.70
2022,10,03,11,16,19.70
2022,10,03,11,17,19.70
2022,10,03,11,18,19.70
2022,10,03,11,19,19.70
2022,10,03,11,20,19.70
2022,10,03,11,21,19.80
2022,10,03,11,22,19.80
2022,10,03,11,23,19.80
2022,10,03,11,24,19.90
2022,10,03,11,25,19.90
2022,10,03,11,26,19.90
2022,10,03,11,27,19.90
2022,10,03,11,28,19.80
2022,10,03,11,29,19.80
2022,10,03,11,30,19.70
2022,10,03,11,31,19.70
2022,10,03,11,32,19.80
2022,10,03,11,33,19.80
2022,10,03,11,34,19.80
2022,10,03,11,35,19.90
2022,10,03,11,36,19.90
2022,10,03,11,37,19.90
2022,10,03,11,38,19.80
2022,10,03,11,39,19.80
2022,10,03,11,40,19.80
2022,10,03,11,41,19.70
2022,10,03,11,42,19.70
2022,10,03,11,43,19.70
2022,10,03,11,44,19.70
2022,10,03,11,45,19.70
2022,10,03,11,46,19.70
2022,10,03,11,47,19.70
2022,10,03,11,48,19.70
2022,10,03,11,49,19.70
2022,10,03,11,50,19.70
2022,10,03,11,51,19.70
2022,10,03,11,52,19.70
2022,10,03,11,53,19.70
2022,10,03,11,54,19.70
2022,10,03,11,55,19.70
2022,10,03,11,56,19.70
2022,10,03,11,57,19.70
2022,10,03,11,58,19.70
2022,10,03,11,59,19.70
2022,10,03,12,00,19.80
2022,10,03,12,01,19.80
2022,10,03,12,02,19.90
2022,10,03,12,03,19.90
2022,10,03,12,04,19.90
2022,10,03,12,05,19.90
2022,10,03,12,06,19.90
2022,10,03,12,07,19.80
2022,10,03,12,08,19.80
2022,10,03,12,09,19.90
2022,10,03,12,10,19.90
2022,10,03,12,11,20.00
2022,10,03,12,12,20.10
2022,10,03,12,13,20.20
2022,10,03,12,14,20.30
2022,10,03,12,15,20.40
2022,10,03,12,16,20.40
2022,10,03,12,17,20.40
2022,10,03,12,18,20.30
2022,10,03,12,19,20.20
2022,10,03,12,20,20.10
2022,10,03,12,21,20.10
2022,10,03,12,22,20.10
2022,10,03,12,23,20.10
2022,10,03,12,24,20.10
2022,10,03,12,25,20.10
2022,10,03,12,26,20.20
2022,10,03,12,27,20.20
2022,10,03,12,28,20.30
2022,10,03,12,29,20.30
2022,10,03,12,30,20.20
2022,10,03,12,31,20.20
2022,10,03,12,32,20.20
2022,10,03,12,33,20.20
2022,10,03,12,34,20.20
2022,10,03,12,35,20.20
2022,10,03,12,36,20.20
2022,10,03,12,37,20.20
2022,10,03,12,38,20.20
2022,10,03,12,39,20.20
2022,10,03,12,40,20.30
2022,10,03,12,41,20.30
2022,10,03,12,42,20.40
2022,10,03,12,43,20.40
2022,10,03,12,44,20.50
2022,10,03,12,45,20.50
2022,10,03,12,46,20.60
2022,10,03,12,47,20.60
2022,10,03,12,48,20.70
2022,10,03,12,49,20.80
2022,10,03,12,50,20.80
2022,10,03,12,51,20.90
2022,10,03,12,52,20.90
2022,10,03,12,53,21.00
2022,10,03,12,54,21.00
2022,10,03,12,55,21.10
2022,10,03,12,56,21.10
2022,10,03,12,57,21.10
2022,10,03,12,58,21.10
2022,10,03,12,59,21.10
2022,10,03,13,00,21.20
2022,10,03,13,01,21.20
2022,10,03,13,02,21.20
2022,10,03,13,03,21.20
2022,10,03,13,04,21.30
2022,10,03,13,05,21.30
2022,10,03,13,06,21.30
2022,10,03,13,07,21.30
2022,10,03,13,08,21.30
2022,10,03,13,09,21.30
2022,10,03,13,10,21.40
2022,10,03,13,11,21.40
2022,10,03,13,12,21.40
2022,10,03,13,13,21.40
2022,10,03,13,14,21.40
2022,10,03,13,15,21.40
2022,10,03,13,16,21.30
2022,10,03,13,17,21.30
2022,10,03,13,18,21.30
2022,10,03,13,19,21.30
2022,10,03,13,20,21.30
2022,10,03,13,21,21.30
2022,10,03,13,22,21.40
2022,10,03,13,23,21.40
2022,10,03,13,24,21.50
2022,10,03,13,25,21.50
2022,10,03,13,26,21.60
2022,10,03,13,27,21.70
2022,10,03,13,28,21.80
2022,10,03,13,29,21.80
2022,10,03,13,30,21.90
2022,10,03,13,31,21.90
2022,10,03,13,32,22.00
2022,10,03,13,33,22.00
2022,10,03,13,34,21.90
2022,10,03,13,35,21.90
2022,10,03,13,36,21.80
2022,10,03,13,37,21.80
2022,10,03,13,38,21.70
2022,10,03,13,39,21.70
2022,10,03,13,40,21.70
2022,10,03,13,41,21.70
2022,10,03,13,42,21.70
2022,10,03,13,43,21.70
2022,10,03,13,44,21.80
2022,10,03,13,45,21.80
2022,10,03,13,46,21.80
2022,10,03,13,47,21.70
2022,10,03,13,48,21.70
2022,10,03,13,49,21.70
2022,10,03,13,50,21.60
2022,10,03,13,51,21.50
2022,10,03,13,52,21.50
2022,10,03,13,53,21.50
2022,10,03,13,54,21.40
2022,10,03,13,55,21.40
2022,10,03,13,56,21.40
2022,10,03,13,57,21.40
2022,10,03,13,58,21.40
2022,10,03,13,59,21.50
2022,10,03,14,00,21.60
2022,10,03,14,01,21.70
2022,10,03,14,02,21.80
2022,10,03,14,03,21.80
2022,10,03,14,04,21.90
2022,10,03,14,05,22.00
2022,10,03,14,06,22.10
2022,10,03,14,07,22.20
2022,10,03,14,08,22.20
2022,10,03,14,09,22.20
2022,10,03,14,10,22.20
2022,10,03,14,11,22.20
2022,10,03,14,12,22.20
2022,10,03,14,13,22.30
2022,10,03,14,14,22.30
2022,10,03,14,15,22.30
2022,10,03,14,16,22.40
2022,10,03,14,17,22.40
2022,10,03,14,18,22.50
2022,10,03,14,19,22.60
2022,10,03,14,20,22.60
2022,10,03,14,21,22.70
2022,10,03,14,22,22.80
2022,10,03,14,23,22.80
2022,10,03,14,24,22.80
2022,10,03,14,25,22.80
2022,10,03,14,26,22.80
2022,10,03,14,27,22.80
2022,10,03,14,28,22.90
2022,10,03,14,29,22.90
2022,10,03,14,30,22.90
2022,10,03,14,31,22.90
2022,10,03,14,32,22.90
2022,10,03,14,33,22.90
2022,10,03,14,34,22.90
2022,10,03,14,35,23.00
2022,10,03,14,36,23.10
2022,10,03,14,37,23.10
2022,10,03,14,38,23.10
2022,10,03,14,39,23.10
2022,10,03,14,40,23.20
2022,10,03,14,41,23.20
2022,10,03,14,42,23.30
2022,10,03,14,43,23.30
2022,10,03,14,44,23.30
2022,10,03,14,45,23.30
2022,10,03,14,46,23.30
2022,10,03,14,47,23.30
2022,10,03,14,48,23.30
2022,10,03,14,49,23.30
2022,10,03,14,50,23.30
2022,10,03,14,51,23.30
2022,10,03,14,52,23.30
2022,10,03,14,53,23.30
2022,10,03,14,54,23.30
2022,10,03,14,55,23.20
2022,10,03,14,56,23.20
2022,10,03,14,57,23.20
2022,10,03,14,58,23.10
2022,10,03,14,59,23.10
2022,10,03,15,00,23.00
2022,10,03,15,01,22.90
2022,10,03,15,02,22.80
2022,10,03,15,03,22.80
2022,10,03,15,04,22.70
2022,10,03,15,05,22.70
2022,10,03,15,06,22.60
2022,10,03,15,07,22.50
2022,10,03,15,08,22.50
2022,10,03,15,09,22.40
2022,10,03,15,10,22.40
2022,10,03,15,11,22.40
2022,10,03,15,12,22.50
2022,10,03,15,13,22.50
2022,10,03,15,14,22.60
2022,10,03,15,15,22.60
2022,10,03,15,16,22.70
2022,10,03,15,17,22.70
2022,10,03,15,18,22.80
2022,10,03,15,19,22.90
2022,10,03,15,20,23.00
2022,10,03,15,21,23.00
2022,10,03,15,22,23.10
2022,10,03,15,23,23.10
2022,10,03,15,24,23.10
2022,10,03,15,25,23.10
2022,10,03,15,26,23.10
2022,10,03,15,27,23.10
2022,10,03,15,28,23.20
2022,10,03,15,29,23.20
2022,10,03,15,30,23.20
2022,10,03,15,31,23.20
2022,10,03,15,32,23.20
2022,10,03,15,33,23.20
2022,10,03,15,34,23.20
2022,10,03,15,35,23.20
2022,10,03,15,36,23.20
2022,10,03,15,37,23.10
2022,10,03,15,38,23.10
2022,10,03,15,39,23.10
2022,10,03,15,40,23.10
2022,10,03,15,41,23.10
2022,10,03,15,42,23.00
2022,10,03,15,43,23.00
2022,10,03,15,44,23.00
2022,10,03,15,45,22.90
2022,10,03,15,46,22.90
2022,10,03,15,47,22.80
2022,10,03,15,48,22.80
2022,10,03,15,49,22.70
2022,10,03,15,50,22.70
2022,10,03,15,51,22.70
2022,10,03,15,52,22.60
2022,10,03,15,53,22.60
2022,10,03,15,54,22.60
2022,10,03,15,55,22.60
2022,10,03,15,56,22.50
2022,10,03,15,57,22.40
2022,10,03,15,58,22.40
2022,10,03,15,59,22.30
2022,10,03,16,00,22.30
2022,10,03,16,01,22.20
2022,10,03,16,02,22.20
2022,10,03,16,03,22.10
2022,10,03,16,04,22.00
2022,10,03,16,05,22.00
2022,10,03,16,06,22.00
2022,10,03,16,07,22.00
2022,10,03,16,08,21.90
2022,10,03,16,09,21.90
2022,10,03,16,10,21.90
2022,10,03,16,11,21.90
2022,10,03,16,12,21.90
2022,10,03,16,13,21.90
2022,10,03,16,14,22.00
2022,10,03,16,15,22.00
2022,10,03,16,16,22.00
2022,10,03,16,17,22.00
2022,10,03,16,18,22.10
2022,10,03,16,19,22.10
2022,10,03,16,20,22.10
2022,10,03,16,21,22.10
2022,10,03,16,22,22.10
2022,10,03,16,23,22.20
2022,10,03,16,24,22.20
2022,10,03,16,25,22.20
2022,10,03,16,26,22.30
2022,10,03,16,27,22.30
2022,10,03,16,28,22.30
2022,10,03,16,29,22.40
2022,10,03,16,30,22.40
2022,10,03,16,31,22.40
2022,10,03,16,32,22.50
2022,10,03,16,33,22.50
2022,10,03,16,34,22.50
2022,10,03,16,35,22.50
2022,10,03,16,36,22.50
2022,10,03,16,37,22.50
2022,10,03,16,38,22.40
2022,10,03,16,39,22.30
2022,10,03,16,40,22.30
2022,10,03,16,41,22.20
2022,10,03,16,42,22.20
2022,10,03,16,43,22.20
2022,10,03,16,44,22.10
2022,10,03,16,45,22.10
2022,10,03,16,46,22.10
2022,10,03,16,47,22.00
2022,10,03,16,48,21.90
2022,10,03,16,49,21.90
2022,10,03,16,50,21.80
2022,10,03,16,51,21.80
2022,10,03,16,52,21.80
2022,10,03,16,53,21.80
2022,10,03,16,54,21.80
2022,10,03,16,55,21.80
2022,10,03,16,56,21.80
2022,10,03,16,57,21.70
2022,10,03,16,58,21.70
2022,10,03,16,59,21.70
2022,10,03,17,00,21.70
2022,10,03,17,01,21.70
2022,10,03,17,02,21.80
2022,10,03,17,03,21.80
2022,10,03,17,04,21.80
2022,10,03,17,05,21.70
2022,10,03,17,06,21.60
2022,10,03,17,07,21.60
2022,10,03,17,08,21.50
2022,10,03,17,09,21.40
2022,10,03,17,10,21.40
2022,10,03,17,11,21.30
2022,10,03,17,12,21.20
2022,10,03,17,13,21.10
2022,10,03,17,14,21.10
2022,10,03,17,15,21.00
2022,10,03,17,16,20.90
2022,10,03,17,17,20.90
2022,10,03,17,18,20.80
2022,10,03,17,19,20.80